This demonstration page uses our WeatherBlox Daily Observations layout. Learn more.

Hourly Observations for April 28, 2017

Temp ( °F °C ) Dew Point ( °F °C ) Humidity (%) Winds ( mph kmh ) Pressure ( in mb ) Visibility ( mi km ) Precip ( " mm )
12:15 am 00:15 Cloudy 45 7 41 5.2 88 88 ESE 14 22 29.71 1006 10 16.0934 0 0
12:35 am 00:35 Cloudy 45 7.1 41 5.2 88 88 ESE 15 24 29.71 1006 10 16.0934 0 0
12:55 am 00:55 Cloudy 45 7.1 41 5.2 88 88 E 16 26 29.71 1006 10 16.0934 0 0
1:15 am 01:15 Cloudy with Light Drizzle 45 7.1 42 5.3 88 88 ESE 14 22 29.71 1006 10 16.0934 0 0
1:35 am 01:35 Cloudy with Light Rain 44 6.8 42 5.5 92 92 ESE 15 24 29.71 1006 10 16.0934 0 0
1:55 am 01:55 Cloudy with Light Rain 44 6.7 42 5.6 93 93 ESE 16 26 29.71 1006 5 8.0467 0.06 1.524
2:15 am 02:15 Cloudy with Rain 44 6.6 42 5.7 94 94 E 13 20 29.68 1005 5 8.0467 0.08 2.032
2:35 am 02:35 Cloudy with Rain 44 6.5 42 5.7 95 95 E 13 20 29.68 1005 5 8.0467 0.18 4.572
2:55 am 02:55 Cloudy with Rain 44 6.5 42 5.6 94 94 E 13 20 29.68 1005 5 8.0467 0.3 7.62
3:15 am 03:15 Cloudy with Rain 44 6.5 42 5.6 94 94 E 16 26 29.65 1004 7 11.26538 0.08 2.032
3:35 am 03:35 Cloudy with Light Rain 44 6.5 42 5.6 94 94 E 17 28 29.65 1004 7 11.26538 0.16 4.064
3:55 am 03:55 Cloudy with Rain 44 6.5 42 5.6 94 94 E 15 24 29.65 1004 5 8.0467 0.22 5.588
4:15 am 04:15 Cloudy with Light Rain 44 6.5 42 5.7 95 95 E 13 20 29.65 1004 4 6.43736 0.05 1.27
4:35 am 04:35 Cloudy with Light Rain 44 6.5 42 5.6 94 94 E 16 26 29.65 1004 7 11.26538 0.08 2.032
4:55 am 04:55 Cloudy with Light Rain 43 6.3 42 5.5 95 95 E 15 24 29.65 1004 4 6.43736 0.12 3.048
5:15 am 05:15 Cloudy with Rain 44 6.5 42 5.6 94 94 E 14 22 29.65 1004 5 8.0467 0.02 0.508
5:35 am 05:35 Cloudy with Light Rain 44 6.5 42 5.7 95 95 E 16 26 29.65 1004 4 6.43736 0.06 1.524
5:55 am 05:55 Cloudy with Light Rain 44 6.5 42 5.8 95 95 E 18 30 29.65 1004 7 11.26538 0.07 1.778
6:15 am 06:15 Cloudy with Light Rain 44 6.5 42 5.8 95 95 E 20 31 29.65 1004 4 6.43736 0.01 0.254
6:35 am 06:35 Cloudy with Light Rain 44 6.5 42 5.8 95 95 E 20 31 29.65 1004 5 8.0467 0.02 0.508
6:55 am 06:55 Cloudy with Light Rain 44 6.5 42 5.8 95 95 E 16 26 29.65 1004 5 8.0467 0.05 1.27
7:15 am 07:15 Cloudy with Rain 44 6.6 43 6 96 96 ENE 14 22 29.65 1004 4 6.43736 0.07 1.778
7:35 am 07:35 Cloudy with Rain 44 6.5 42 5.8 95 95 ENE 20 31 29.65 1004 3 4.82802 0.15 3.81
7:55 am 07:55 Cloudy with Light Rain 44 6.4 42 5.6 95 95 ENE 18 30 29.65 1004 4 6.43736 0.2 5.08
8:15 am 08:15 Cloudy with Rain 44 6.5 43 6 97 97 ENE 22 35 29.65 1004 4 6.43736 0.02 0.508
8:35 am 08:35 Cloudy with Rain 44 6.6 43 6 96 96 ENE 21 33 29.68 1005 2.5 4.02335 0.09 2.286
8:55 am 08:55 Cloudy with Light Rain 42 5.6 41 4.8 95 95 ENE 26 43 29.71 1006 5 8.0467 0.11 2.794
9:15 am 09:15 Cloudy with Light Rain 42 5.3 40 4.5 95 95 ENE 25 41 29.71 1006 4 6.43736 0.02 0.508
9:35 am 09:35 Cloudy with Drizzle 41 5.2 40 4.3 94 94 ENE 25 41 29.74 1007 5 8.0467 0.02 0.508
9:55 am 09:55 Cloudy with Light Drizzle 41 5.1 40 4.2 94 94 ENE 21 33 29.74 1007 7 11.26538 0.02 0.508
10:15 am 10:15 Cloudy with Light Rain 40 4.2 38 3.2 93 93 NE 23 37 29.74 1007 7 11.26538 0.01 0.254
10:35 am 10:35 Cloudy with Light Rain 39 4 37 3 93 93 NE 24 39 29.77 1008 5 8.0467 0.01 0.254
10:55 am 10:55 Cloudy with Light Rain 39 3.8 37 2.8 93 93 NE 23 37 29.77 1008 5 8.0467 0.01 0.254
11:15 am 11:15 Cloudy with Mist and Fog 39 3.7 37 2.7 93 93 NE 21 33 29.8 1009 5 8.0467 0 0
11:35 am 11:35 Cloudy with Mist and Fog 38 3.5 37 2.5 93 93 NE 21 33 29.83 1010 4 6.43736 0.01 0.254
11:55 am 11:55 Cloudy with Mist and Fog 38 3.6 37 2.6 93 93 NE 24 39 29.8 1009 5 8.0467 0.01 0.254
12:15 pm 12:15 Cloudy with Mist and Fog 38 3.6 37 2.6 93 93 NE 26 43 29.85 1011 4 6.43736 0 0
12:35 pm 12:35 Cloudy with Mist and Fog 38 3.5 37 2.5 93 93 NE 23 37 29.85 1011 4 6.43736 0 0
12:55 pm 12:55 Cloudy with Mist and Fog 38 3.1 36 2.1 93 93 NE 20 31 29.85 1011 4 6.43736 0 0
1:15 pm 13:15 Cloudy with Mist and Fog 37 2.9 35 1.7 92 92 NE 22 35 29.85 1011 4 6.43736 0 0
1:35 pm 13:35 Cloudy with Mist and Fog 37 2.7 35 1.6 93 93 NNE 20 31 29.85 1011 5 8.0467 0 0
1:55 pm 13:55 Cloudy 37 2.6 35 1.5 93 93 NE 22 35 29.85 1011 7 11.26538 0 0
2:15 pm 14:15 Cloudy with Mist and Fog 37 2.5 35 1.4 93 93 NNE 21 33 29.85 1011 5 8.0467 0 0
2:35 pm 14:35 Cloudy with Mist and Fog 37 2.5 34 1.3 92 92 NNE 22 35 29.88 1012 5 8.0467 0 0
2:55 pm 14:55 Cloudy 37 2.5 35 1.5 93 93 NNE 20 31 29.88 1012 7 11.26538 0 0
3:15 pm 15:15 Cloudy with Mist and Fog 37 2.5 35 1.5 93 93 NE 21 33 29.88 1012 5 8.0467 0 0
3:35 pm 15:35 Cloudy with Mist and Fog 37 2.6 35 1.6 93 93 NNE 20 31 29.88 1012 3 4.82802 0 0
3:55 pm 15:55 Cloudy with Light Rain 37 3 36 2 93 93 NE 23 37 29.88 1012 2 3.21868 0 0
4:15 pm 16:15 Cloudy with Mist and Fog 37 2.9 35 1.7 92 92 NNE 22 35 29.91 1013 3 4.82802 0 0
4:35 pm 16:35 Cloudy 37 3 35 1.7 91 91 NE 21 33 29.91 1013 7 11.26538 0 0
4:55 pm 16:55 Cloudy 37 2.7 35 1.5 92 92 NE 24 39 29.94 1014 7 11.26538 0 0
5:15 pm 17:15 Cloudy 37 2.5 35 1.4 93 93 NE 20 31 29.97 1015 7 11.26538 0 0
5:35 pm 17:35 Cloudy 37 2.5 34 1.3 92 92 NE 20 31 29.97 1015 10 16.0934 0 0
5:55 pm 17:55 Cloudy with Mist and Fog 37 2.5 35 1.5 93 93 NE 20 31 29.97 1015 5 8.0467 0 0
6:15 pm 18:15 Cloudy with Mist and Fog 37 2.5 35 1.5 93 93 NE 17 28 30 1016 5 8.0467 0 0
6:35 pm 18:35 Cloudy with Mist and Fog 37 2.6 35 1.6 93 93 NE 18 30 30 1016 4 6.43736 0 0
6:55 pm 18:55 Cloudy 37 2.7 35 1.7 93 93 NNE 18 30 30 1016 7 11.26538 0 0
7:15 pm 19:15 Cloudy 37 2.8 35 1.7 93 93 NNE 22 35 29.97 1015 10 16.0934 0 0
7:35 pm 19:35 Cloudy 37 2.8 35 1.7 93 93 NNE 22 35 30 1016 10 16.0934 0 0
7:55 pm 19:55 Cloudy 37 2.9 35 1.6 91 91 NE 18 30 30 1016 10 16.0934 0 0
8:15 pm 20:15 Cloudy 37 3 35 1.8 92 92 NNE 16 26 30.03 1017 10 16.0934 0 0
8:35 pm 20:35 Cloudy 37 3 36 2 93 93 NE 15 24 30.03 1017 10 16.0934 0 0
8:55 pm 20:55 Cloudy 37 3 35 1.5 90 90 NE 18 30 30.06 1018 10 16.0934 0 0
9:15 pm 21:15 Cloudy 37 3 35 1.5 90 90 NNE 20 31 30.03 1017 10 16.0934 0 0
9:35 pm 21:35 Cloudy 37 3 35 1.5 90 90 NE 14 22 30.09 1019 10 16.0934 0 0
9:55 pm 21:55 Cloudy 38 3.1 35 1.5 89 89 NNE 12 19 30.15 1021 10 16.0934 0 0
10:15 pm 22:15 Cloudy with Mist and Fog 37 3 35 1.9 93 93 NNE 14 22 30.15 1021 5 8.0467 0 0
10:35 pm 22:35 Cloudy 37 3 35 1.8 92 92 NNE 15 24 30.15 1021 7 11.26538 0 0
10:55 pm 22:55 Cloudy with Mist and Fog 37 3 35 1.8 92 92 NNE 15 24 30.15 1021 5 8.0467 0 0
11:15 pm 23:15 Cloudy with Mist and Fog 37 3 36 2 93 93 N 12 19 30.15 1021 5 8.0467 0 0
11:35 pm 23:35 Cloudy with Mist and Fog 37 3 36 2 93 93 NNE 15 24 30.15 1021 4 6.43736 0 0
11:55 pm 23:55 Cloudy 37 3 36 2 93 93 NNE 13 20 30.15 1021 7 11.26538 0 0

Powered by AerisWeather